Time,TemperatureF,DewpointF,PressureIn,WindDirection,WindDirectionDegrees,WindSpeedMPH,WindSpeedGustMPH,Humidity,HourlyPrecipIn,Conditions,Clouds,dailyrainin,SoftwareType,DateUTC
2013-06-25 00:04:00,78.6,71.5,29.87,SE,135,7.0,-999.0,79,0.00,,,0.00,Wunderground v.1.15,2013-06-25 05:04:00,
2013-06-25 00:09:00,78.6,71.5,29.87,SE,135,7.0,-999.0,79,0.00,,,0.00,Wunderground v.1.15,2013-06-25 05:09:00,
2013-06-25 00:14:00,78.6,71.5,29.87,SE,135,7.0,-999.0,79,0.00,,,0.00,Wunderground v.1.15,2013-06-25 05:14:00,
2013-06-25 00:19:00,78.5,71.4,29.87,SE,135,4.0,-999.0,79,0.00,,,0.00,Wunderground v.1.15,2013-06-25 05:19:00,
2013-06-25 00:24:00,78.5,71.4,29.87,SE,135,4.0,-999.0,79,0.00,,,0.00,Wunderground v.1.15,2013-06-25 05:24:00,
2013-06-25 00:29:00,78.3,71.2,29.87,SE,135,6.0,-999.0,79,0.00,,,0.00,Wunderground v.1.15,2013-06-25 05:29:00,
2013-06-25 00:34:00,78.3,71.2,29.87,SE,135,6.0,-999.0,79,0.00,,,0.00,Wunderground v.1.15,2013-06-25 05:34:00,
2013-06-25 00:39:00,78.3,71.2,29.87,SE,135,6.0,-999.0,79,0.00,,,0.00,Wunderground v.1.15,2013-06-25 05:39:00,
2013-06-25 00:44:00,78.3,71.2,29.87,SE,135,6.0,-999.0,79,0.00,,,0.00,Wunderground v.1.15,2013-06-25 05:44:00,
2013-06-25 00:49:00,78.1,71.4,29.87,SE,135,7.0,-999.0,80,0.00,,,0.00,Wunderground v.1.15,2013-06-25 05:49:00,
2013-06-25 00:54:00,78.1,71.4,29.87,SE,135,7.0,-999.0,80,0.00,,,0.00,Wunderground v.1.15,2013-06-25 05:54:00,
2013-06-25 00:59:00,78.1,71.4,29.87,SE,135,7.0,-999.0,80,0.00,,,0.00,Wunderground v.1.15,2013-06-25 05:59:00,
2013-06-25 01:04:00,78.1,71.4,29.87,SE,135,7.0,-999.0,80,0.00,,,0.00,Wunderground v.1.15,2013-06-25 06:04:00,
2013-06-25 01:09:00,78.1,71.4,29.87,SE,135,9.0,-999.0,80,0.00,,,0.00,Wunderground v.1.15,2013-06-25 06:09:00,
2013-06-25 01:14:00,78.1,71.4,29.87,SE,135,9.0,-999.0,80,0.00,,,0.00,Wunderground v.1.15,2013-06-25 06:14:00,
2013-06-25 01:19:00,78.1,71.4,29.87,SE,135,7.0,-999.0,80,0.00,,,0.00,Wunderground v.1.15,2013-06-25 06:19:00,
2013-06-25 01:24:00,78.1,71.4,29.87,SE,135,7.0,-999.0,80,0.00,,,0.00,Wunderground v.1.15,2013-06-25 06:24:00,
2013-06-25 01:29:00,78.1,71.4,29.86,SSE,158,8.0,-999.0,80,0.00,,,0.00,Wunderground v.1.15,2013-06-25 06:29:00,
2013-06-25 01:34:00,78.1,71.4,29.86,SSE,158,8.0,-999.0,80,0.00,,,0.00,Wunderground v.1.15,2013-06-25 06:34:00,
2013-06-25 01:39:00,78.1,71.8,29.86,SSE,158,6.0,-999.0,81,0.00,,,0.00,Wunderground v.1.15,2013-06-25 06:39:00,
2013-06-25 01:44:00,78.1,71.8,29.86,SSE,158,6.0,-999.0,81,0.00,,,0.00,Wunderground v.1.15,2013-06-25 06:44:00,
2013-06-25 01:49:00,77.9,71.6,29.86,SE,135,8.0,-999.0,81,0.00,,,0.00,Wunderground v.1.15,2013-06-25 06:49:00,
2013-06-25 01:54:00,77.9,71.6,29.86,SE,135,8.0,-999.0,81,0.00,,,0.00,Wunderground v.1.15,2013-06-25 06:54:00,
2013-06-25 01:59:00,77.9,72.0,29.87,SSE,158,6.0,-999.0,82,0.00,,,0.00,Wunderground v.1.15,2013-06-25 06:59:00,
2013-06-25 02:04:00,77.9,72.0,29.87,SSE,158,6.0,-999.0,82,0.00,,,0.00,Wunderground v.1.15,2013-06-25 07:04:00,
2013-06-25 02:09:00,77.7,71.8,29.87,SE,135,5.0,-999.0,82,0.00,,,0.00,Wunderground v.1.15,2013-06-25 07:09:00,
2013-06-25 02:14:00,77.7,71.8,29.87,SE,135,5.0,-999.0,82,0.00,,,0.00,Wunderground v.1.15,2013-06-25 07:14:00,
2013-06-25 02:19:00,77.7,71.8,29.86,SE,135,5.0,-999.0,82,0.00,,,0.00,Wunderground v.1.15,2013-06-25 07:19:00,
2013-06-25 02:24:00,77.7,71.8,29.86,SE,135,5.0,-999.0,82,0.00,,,0.00,Wunderground v.1.15,2013-06-25 07:24:00,
2013-06-25 02:29:00,77.7,71.8,29.86,SE,135,4.0,-999.0,82,0.00,,,0.00,Wunderground v.1.15,2013-06-25 07:29:00,
2013-06-25 02:34:00,77.7,71.8,29.86,SE,135,4.0,-999.0,82,0.00,,,0.00,Wunderground v.1.15,2013-06-25 07:34:00,
2013-06-25 02:39:00,77.6,71.7,29.86,SSE,158,4.0,-999.0,82,0.00,,,0.00,Wunderground v.1.15,2013-06-25 07:39:00,
2013-06-25 02:44:00,77.6,71.7,29.86,SSE,158,4.0,-999.0,82,0.00,,,0.00,Wunderground v.1.15,2013-06-25 07:44:00,
2013-06-25 02:49:00,77.6,71.7,29.86,SSE,158,5.0,-999.0,82,0.00,,,0.00,Wunderground v.1.15,2013-06-25 07:49:00,
2013-06-25 02:54:00,77.6,71.7,29.86,SSE,158,5.0,-999.0,82,0.00,,,0.00,Wunderground v.1.15,2013-06-25 07:54:00,
2013-06-25 02:59:00,77.6,72.0,29.86,SE,135,6.0,-999.0,83,0.00,,,0.00,Wunderground v.1.15,2013-06-25 07:59:00,
2013-06-25 03:04:00,77.6,72.0,29.86,SE,135,6.0,-999.0,83,0.00,,,0.00,Wunderground v.1.15,2013-06-25 08:04:00,
2013-06-25 03:09:00,77.6,72.0,29.86,SSE,158,6.0,-999.0,83,0.00,,,0.00,Wunderground v.1.15,2013-06-25 08:09:00,
2013-06-25 03:14:00,77.6,72.0,29.86,SSE,158,6.0,-999.0,83,0.00,,,0.00,Wunderground v.1.15,2013-06-25 08:14:00,
2013-06-25 03:19:00,77.6,72.0,29.86,SE,135,5.0,-999.0,83,0.00,,,0.00,Wunderground v.1.15,2013-06-25 08:19:00,
2013-06-25 03:24:00,77.6,72.0,29.86,SE,135,5.0,-999.0,83,0.00,,,0.00,Wunderground v.1.15,2013-06-25 08:24:00,
2013-06-25 03:29:00,77.6,72.0,29.87,South,180,4.0,-999.0,83,0.00,,,0.00,Wunderground v.1.15,2013-06-25 08:29:00,
2013-06-25 03:34:00,77.6,72.0,29.87,South,180,4.0,-999.0,83,0.00,,,0.00,Wunderground v.1.15,2013-06-25 08:34:00,
2013-06-25 03:39:00,77.6,72.0,29.87,SE,135,4.0,-999.0,83,0.00,,,0.00,Wunderground v.1.15,2013-06-25 08:39:00,
2013-06-25 03:44:00,77.6,72.0,29.87,SE,135,4.0,-999.0,83,0.00,,,0.00,Wunderground v.1.15,2013-06-25 08:44:00,
2013-06-25 03:49:00,77.6,72.0,29.86,SE,135,4.0,-999.0,83,0.00,,,0.00,Wunderground v.1.15,2013-06-25 08:49:00,
2013-06-25 03:54:00,77.6,72.0,29.86,SE,135,4.0,-999.0,83,0.00,,,0.00,Wunderground v.1.15,2013-06-25 08:54:00,
2013-06-25 03:59:00,77.6,72.0,29.86,SE,135,5.0,-999.0,83,0.00,,,0.00,Wunderground v.1.15,2013-06-25 08:59:00,
2013-06-25 04:04:00,77.6,72.0,29.86,SE,135,5.0,-999.0,83,0.00,,,0.00,Wunderground v.1.15,2013-06-25 09:04:00,
2013-06-25 04:09:00,77.6,72.0,29.86,SSE,158,3.0,-999.0,83,0.00,,,0.00,Wunderground v.1.15,2013-06-25 09:09:00,
2013-06-25 04:14:00,77.6,72.0,29.86,SSE,158,3.0,-999.0,83,0.00,,,0.00,Wunderground v.1.15,2013-06-25 09:14:00,
2013-06-25 04:19:00,77.6,72.0,29.86,SSE,158,3.0,-999.0,83,0.00,,,0.00,Wunderground v.1.15,2013-06-25 09:19:00,
2013-06-25 04:24:00,77.6,72.0,29.86,SSE,158,3.0,-999.0,83,0.00,,,0.00,Wunderground v.1.15,2013-06-25 09:24:00,
2013-06-25 04:29:00,77.4,71.8,29.85,SSE,158,5.0,-999.0,83,0.00,,,0.00,Wunderground v.1.15,2013-06-25 09:29:00,
2013-06-25 04:34:00,77.4,71.8,29.85,SSE,158,5.0,-999.0,83,0.00,,,0.00,Wunderground v.1.15,2013-06-25 09:34:00,
2013-06-25 04:39:00,77.4,72.2,29.85,SSE,158,5.0,-999.0,84,0.00,,,0.00,Wunderground v.1.15,2013-06-25 09:39:00,
2013-06-25 04:44:00,77.4,72.2,29.85,SSE,158,5.0,-999.0,84,0.00,,,0.00,Wunderground v.1.15,2013-06-25 09:44:00,
2013-06-25 04:49:00,77.2,72.0,29.85,SE,135,4.0,-999.0,84,0.00,,,0.00,Wunderground v.1.15,2013-06-25 09:49:00,
2013-06-25 04:54:00,77.2,72.0,29.85,SE,135,4.0,-999.0,84,0.00,,,0.00,Wunderground v.1.15,2013-06-25 09:54:00,
2013-06-25 04:59:00,77.0,71.8,29.85,SE,135,4.0,-999.0,84,0.00,,,0.00,Wunderground v.1.15,2013-06-25 09:59:00,
2013-06-25 05:04:00,77.0,71.8,29.85,SE,135,4.0,-999.0,84,0.00,,,0.00,Wunderground v.1.15,2013-06-25 10:04:00,
2013-06-25 05:09:00,76.8,71.6,29.85,SE,135,5.0,-999.0,84,0.00,,,0.00,Wunderground v.1.15,2013-06-25 10:09:00,
2013-06-25 05:14:00,76.8,71.6,29.85,SE,135,5.0,-999.0,84,0.00,,,0.00,Wunderground v.1.15,2013-06-25 10:14:00,
2013-06-25 05:19:00,76.8,71.6,29.85,South,180,5.0,-999.0,84,0.00,,,0.00,Wunderground v.1.15,2013-06-25 10:19:00,
2013-06-25 05:24:00,76.8,71.6,29.85,South,180,5.0,-999.0,84,0.00,,,0.00,Wunderground v.1.15,2013-06-25 10:24:00,
2013-06-25 05:29:00,76.8,71.6,29.85,South,180,3.0,-999.0,84,0.00,,,0.00,Wunderground v.1.15,2013-06-25 10:29:00,
2013-06-25 05:34:00,76.8,71.6,29.85,South,180,3.0,-999.0,84,0.00,,,0.00,Wunderground v.1.15,2013-06-25 10:34:00,
2013-06-25 05:39:00,76.7,71.5,29.85,South,180,3.0,-999.0,84,0.00,,,0.00,Wunderground v.1.15,2013-06-25 10:39:00,
2013-06-25 05:44:00,76.7,71.5,29.85,South,180,3.0,-999.0,84,0.00,,,0.00,Wunderground v.1.15,2013-06-25 10:44:00,
2013-06-25 05:49:00,76.7,71.5,29.85,SSE,158,4.0,-999.0,84,0.00,,,0.00,Wunderground v.1.15,2013-06-25 10:49:00,
2013-06-25 05:54:00,76.7,71.5,29.85,SSE,158,4.0,-999.0,84,0.00,,,0.00,Wunderground v.1.15,2013-06-25 10:54:00,
2013-06-25 05:59:00,76.7,71.1,29.85,South,180,6.0,-999.0,83,0.00,,,0.00,Wunderground v.1.15,2013-06-25 10:59:00,
2013-06-25 06:04:00,76.7,71.1,29.85,South,180,6.0,-999.0,83,0.00,,,0.00,Wunderground v.1.15,2013-06-25 11:04:00,
2013-06-25 06:09:00,76.7,71.1,29.85,SSE,158,6.0,-999.0,83,0.00,,,0.00,Wunderground v.1.15,2013-06-25 11:09:00,
2013-06-25 06:14:00,76.7,71.1,29.85,SSE,158,6.0,-999.0,83,0.00,,,0.00,Wunderground v.1.15,2013-06-25 11:14:00,
2013-06-25 06:19:00,76.7,71.1,29.85,South,180,3.0,-999.0,83,0.00,,,0.00,Wunderground v.1.15,2013-06-25 11:19:00,
2013-06-25 06:24:00,76.7,71.1,29.85,South,180,3.0,-999.0,83,0.00,,,0.00,Wunderground v.1.15,2013-06-25 11:24:00,
2013-06-25 06:29:00,76.7,71.5,29.85,SSE,158,3.0,-999.0,84,0.00,,,0.00,Wunderground v.1.15,2013-06-25 11:29:00,
2013-06-25 06:34:00,76.7,71.5,29.85,SSE,158,3.0,-999.0,84,0.00,,,0.00,Wunderground v.1.15,2013-06-25 11:34:00,
2013-06-25 06:39:00,76.7,71.5,29.85,South,180,5.0,-999.0,84,0.00,,,0.00,Wunderground v.1.15,2013-06-25 11:39:00,
2013-06-25 06:44:00,76.7,71.5,29.85,South,180,5.0,-999.0,84,0.00,,,0.00,Wunderground v.1.15,2013-06-25 11:44:00,
2013-06-25 06:49:00,76.7,71.5,29.86,South,180,3.0,-999.0,84,0.00,,,0.00,Wunderground v.1.15,2013-06-25 11:49:00,
2013-06-25 06:54:00,76.7,71.5,29.86,South,180,3.0,-999.0,84,0.00,,,0.00,Wunderground v.1.15,2013-06-25 11:54:00,
2013-06-25 06:59:00,76.5,71.3,29.86,SE,135,4.0,-999.0,84,0.00,,,0.00,Wunderground v.1.15,2013-06-25 11:59:00,
2013-06-25 07:04:00,76.5,71.3,29.86,SE,135,4.0,-999.0,84,0.00,,,0.00,Wunderground v.1.15,2013-06-25 12:04:00,
2013-06-25 07:09:00,76.5,71.7,29.86,SE,135,2.0,-999.0,85,0.00,,,0.00,Wunderground v.1.15,2013-06-25 12:09:00,
2013-06-25 07:14:00,76.5,71.7,29.86,SE,135,2.0,-999.0,85,0.00,,,0.00,Wunderground v.1.15,2013-06-25 12:14:00,
2013-06-25 07:19:00,76.5,71.7,29.86,SE,135,5.0,-999.0,85,0.00,,,0.00,Wunderground v.1.15,2013-06-25 12:19:00,
2013-06-25 07:24:00,76.5,71.7,29.86,SE,135,5.0,-999.0,85,0.00,,,0.00,Wunderground v.1.15,2013-06-25 12:24:00,
2013-06-25 07:29:00,76.5,71.3,29.86,South,180,7.0,-999.0,84,0.00,,,0.00,Wunderground v.1.15,2013-06-25 12:29:00,
2013-06-25 07:34:00,76.5,71.3,29.86,South,180,7.0,-999.0,84,0.00,,,0.00,Wunderground v.1.15,2013-06-25 12:34:00,
2013-06-25 07:39:00,76.7,70.8,29.86,South,180,7.0,-999.0,82,0.00,,,0.00,Wunderground v.1.15,2013-06-25 12:39:00,
2013-06-25 07:44:00,76.7,70.8,29.86,South,180,7.0,-999.0,82,0.00,,,0.00,Wunderground v.1.15,2013-06-25 12:44:00,
2013-06-25 07:49:00,76.8,70.9,29.87,South,180,8.0,-999.0,82,0.00,,,0.00,Wunderground v.1.15,2013-06-25 12:49:00,
2013-06-25 07:54:00,76.8,70.9,29.87,South,180,8.0,-999.0,82,0.00,,,0.00,Wunderground v.1.15,2013-06-25 12:54:00,
2013-06-25 07:59:00,77.0,71.1,29.87,South,180,6.0,-999.0,82,0.00,,,0.00,Wunderground v.1.15,2013-06-25 12:59:00,
2013-06-25 08:04:00,77.0,71.1,29.87,South,180,6.0,-999.0,82,0.00,,,0.00,Wunderground v.1.15,2013-06-25 13:04:00,
2013-06-25 08:09:00,76.8,70.5,29.87,South,180,8.0,-999.0,81,0.00,,,0.00,Wunderground v.1.15,2013-06-25 13:09:00,
2013-06-25 08:14:00,76.8,70.5,29.87,South,180,8.0,-999.0,81,0.00,,,0.00,Wunderground v.1.15,2013-06-25 13:14:00,
2013-06-25 08:19:00,77.0,70.7,29.88,South,180,9.0,-999.0,81,0.00,,,0.00,Wunderground v.1.15,2013-06-25 13:19:00,
2013-06-25 08:24:00,77.0,70.7,29.88,South,180,9.0,-999.0,81,0.00,,,0.00,Wunderground v.1.15,2013-06-25 13:24:00,
2013-06-25 08:29:00,77.2,70.5,29.88,SSE,158,7.0,-999.0,80,0.00,,,0.00,Wunderground v.1.15,2013-06-25 13:29:00,
2013-06-25 08:34:00,77.2,70.5,29.88,SSE,158,7.0,-999.0,80,0.00,,,0.00,Wunderground v.1.15,2013-06-25 13:34:00,
2013-06-25 08:39:00,77.6,70.9,29.88,South,180,7.0,-999.0,80,0.00,,,0.00,Wunderground v.1.15,2013-06-25 13:39:00,
2013-06-25 08:44:00,77.6,70.9,29.88,South,180,7.0,-999.0,80,0.00,,,0.00,Wunderground v.1.15,2013-06-25 13:44:00,
2013-06-25 08:49:00,78.1,71.1,29.89,SSE,158,6.0,-999.0,79,0.00,,,0.00,Wunderground v.1.15,2013-06-25 13:49:00,
2013-06-25 08:54:00,78.1,71.1,29.89,SSE,158,6.0,-999.0,79,0.00,,,0.00,Wunderground v.1.15,2013-06-25 13:54:00,
2013-06-25 08:59:00,78.6,70.8,29.88,South,180,7.0,-999.0,77,0.00,,,0.00,Wunderground v.1.15,2013-06-25 13:59:00,
2013-06-25 09:04:00,78.6,70.8,29.88,South,180,7.0,-999.0,77,0.00,,,0.00,Wunderground v.1.15,2013-06-25 14:04:00,
2013-06-25 09:09:00,78.5,70.7,29.88,South,180,8.0,-999.0,77,0.00,,,0.00,Wunderground v.1.15,2013-06-25 14:09:00,
2013-06-25 09:14:00,78.5,70.7,29.88,South,180,8.0,-999.0,77,0.00,,,0.00,Wunderground v.1.15,2013-06-25 14:14:00,
2013-06-25 09:19:00,79.0,70.8,29.89,SSE,158,7.0,-999.0,76,0.00,,,0.00,Wunderground v.1.15,2013-06-25 14:19:00,
2013-06-25 09:24:00,79.0,70.8,29.89,SSE,158,7.0,-999.0,76,0.00,,,0.00,Wunderground v.1.15,2013-06-25 14:24:00,
2013-06-25 09:29:00,79.9,70.5,29.89,South,180,8.0,-999.0,73,0.00,,,0.00,Wunderground v.1.15,2013-06-25 14:29:00,
2013-06-25 09:34:00,79.9,70.5,29.89,South,180,8.0,-999.0,73,0.00,,,0.00,Wunderground v.1.15,2013-06-25 14:34:00,
2013-06-25 09:39:00,80.1,69.8,29.89,South,180,9.0,-999.0,71,0.00,,,0.00,Wunderground v.1.15,2013-06-25 14:39:00,
2013-06-25 09:44:00,80.1,69.8,29.89,South,180,9.0,-999.0,71,0.00,,,0.00,Wunderground v.1.15,2013-06-25 14:44:00,
2013-06-25 09:49:00,80.5,69.4,29.89,South,180,11.0,-999.0,69,0.00,,,0.00,Wunderground v.1.15,2013-06-25 14:49:00,
2013-06-25 09:54:00,80.5,69.4,29.89,South,180,11.0,-999.0,69,0.00,,,0.00,Wunderground v.1.15,2013-06-25 14:54:00,
2013-06-25 09:59:00,81.4,68.9,29.89,South,180,9.0,-999.0,66,0.00,,,0.00,Wunderground v.1.15,2013-06-25 14:59:00,
2013-06-25 10:04:00,81.4,68.9,29.89,South,180,9.0,-999.0,66,0.00,,,0.00,Wunderground v.1.15,2013-06-25 15:04:00,
2013-06-25 10:09:00,82.0,69.5,29.89,South,180,8.0,-999.0,66,0.00,,,0.00,Wunderground v.1.15,2013-06-25 15:09:00,
2013-06-25 10:14:00,82.0,69.5,29.89,South,180,8.0,-999.0,66,0.00,,,0.00,Wunderground v.1.15,2013-06-25 15:14:00,
2013-06-25 10:19:00,82.4,69.4,29.89,South,180,7.0,-999.0,65,0.00,,,0.00,Wunderground v.1.15,2013-06-25 15:19:00,
2013-06-25 10:24:00,82.4,69.4,29.89,South,180,7.0,-999.0,65,0.00,,,0.00,Wunderground v.1.15,2013-06-25 15:24:00,
2013-06-25 10:29:00,82.8,67.5,29.88,South,180,8.0,-999.0,60,0.00,,,0.00,Wunderground v.1.15,2013-06-25 15:29:00,
2013-06-25 10:34:00,82.8,67.5,29.88,South,180,8.0,-999.0,60,0.00,,,0.00,Wunderground v.1.15,2013-06-25 15:34:00,
2013-06-25 10:39:00,83.4,68.5,29.88,South,180,7.0,-999.0,61,0.00,,,0.00,Wunderground v.1.15,2013-06-25 15:39:00,
2013-06-25 10:44:00,83.4,68.5,29.88,South,180,7.0,-999.0,61,0.00,,,0.00,Wunderground v.1.15,2013-06-25 15:44:00,
2013-06-25 10:49:00,84.0,67.1,29.87,SSW,203,8.0,-999.0,57,0.00,,,0.00,Wunderground v.1.15,2013-06-25 15:49:00,
2013-06-25 10:54:00,84.0,67.1,29.87,SSW,203,8.0,-999.0,57,0.00,,,0.00,Wunderground v.1.15,2013-06-25 15:54:00,
2013-06-25 10:59:00,84.0,67.1,29.88,South,180,10.0,-999.0,57,0.00,,,0.00,Wunderground v.1.15,2013-06-25 15:59:00,
2013-06-25 11:04:00,84.0,67.1,29.88,South,180,10.0,-999.0,57,0.00,,,0.00,Wunderground v.1.15,2013-06-25 16:04:00,
2013-06-25 11:09:00,84.5,66.6,29.88,South,180,10.0,-999.0,55,0.00,,,0.00,Wunderground v.1.15,2013-06-25 16:09:00,
2013-06-25 11:14:00,84.5,66.6,29.88,South,180,10.0,-999.0,55,0.00,,,0.00,Wunderground v.1.15,2013-06-25 16:14:00,
2013-06-25 11:19:00,84.9,66.9,29.87,SSW,203,10.0,-999.0,55,0.00,,,0.00,Wunderground v.1.15,2013-06-25 16:19:00,
2013-06-25 11:24:00,84.9,66.9,29.87,SSW,203,10.0,-999.0,55,0.00,,,0.00,Wunderground v.1.15,2013-06-25 16:24:00,
2013-06-25 11:29:00,85.1,67.6,29.87,South,180,8.0,-999.0,56,0.00,,,0.00,Wunderground v.1.15,2013-06-25 16:29:00,
2013-06-25 11:34:00,85.1,67.6,29.87,South,180,8.0,-999.0,56,0.00,,,0.00,Wunderground v.1.15,2013-06-25 16:34:00,
2013-06-25 11:39:00,85.9,67.3,29.87,South,180,7.0,-999.0,54,0.00,,,0.00,Wunderground v.1.15,2013-06-25 16:39:00,
2013-06-25 11:44:00,85.9,67.3,29.87,South,180,7.0,-999.0,54,0.00,,,0.00,Wunderground v.1.15,2013-06-25 16:44:00,
2013-06-25 11:49:00,87.0,67.8,29.87,SSW,203,6.0,-999.0,53,0.00,,,0.00,Wunderground v.1.15,2013-06-25 16:49:00,
2013-06-25 11:54:00,87.0,67.8,29.87,SSW,203,6.0,-999.0,53,0.00,,,0.00,Wunderground v.1.15,2013-06-25 16:54:00,
2013-06-25 11:59:00,87.4,68.2,29.86,South,180,6.0,-999.0,53,0.00,,,0.00,Wunderground v.1.15,2013-06-25 16:59:00,
2013-06-25 12:04:00,87.4,68.2,29.86,South,180,6.0,-999.0,53,0.00,,,0.00,Wunderground v.1.15,2013-06-25 17:04:00,
2013-06-25 12:09:00,87.2,67.4,29.86,SSW,203,6.0,-999.0,52,0.00,,,0.00,Wunderground v.1.15,2013-06-25 17:09:00,
2013-06-25 12:14:00,87.2,67.4,29.86,SSW,203,6.0,-999.0,52,0.00,,,0.00,Wunderground v.1.15,2013-06-25 17:14:00,
2013-06-25 12:19:00,87.4,66.5,29.85,SSE,158,8.0,-999.0,50,0.00,,,0.00,Wunderground v.1.15,2013-06-25 17:19:00,
2013-06-25 12:24:00,87.4,66.5,29.85,SSE,158,8.0,-999.0,50,0.00,,,0.00,Wunderground v.1.15,2013-06-25 17:24:00,
2013-06-25 12:29:00,88.2,67.2,29.85,SSW,203,7.0,-999.0,50,0.00,,,0.00,Wunderground v.1.15,2013-06-25 17:29:00,
2013-06-25 12:34:00,88.2,67.2,29.85,SSW,203,7.0,-999.0,50,0.00,,,0.00,Wunderground v.1.15,2013-06-25 17:34:00,
2013-06-25 12:39:00,88.2,66.0,29.85,South,180,7.0,-999.0,48,0.00,,,0.00,Wunderground v.1.15,2013-06-25 17:39:00,
2013-06-25 12:44:00,88.2,66.0,29.85,South,180,7.0,-999.0,48,0.00,,,0.00,Wunderground v.1.15,2013-06-25 17:44:00,
2013-06-25 12:49:00,89.0,66.2,29.85,South,180,6.0,-999.0,47,0.00,,,0.00,Wunderground v.1.15,2013-06-25 17:49:00,
2013-06-25 12:54:00,89.0,66.2,29.85,South,180,6.0,-999.0,47,0.00,,,0.00,Wunderground v.1.15,2013-06-25 17:54:00,
2013-06-25 12:59:00,88.6,66.4,29.85,South,180,7.0,-999.0,48,0.00,,,0.00,Wunderground v.1.15,2013-06-25 17:59:00,
2013-06-25 13:04:00,88.6,66.4,29.85,South,180,7.0,-999.0,48,0.00,,,0.00,Wunderground v.1.15,2013-06-25 18:04:00,
2013-06-25 13:09:00,89.0,66.8,29.85,SE,135,7.0,-999.0,48,0.00,,,0.00,Wunderground v.1.15,2013-06-25 18:09:00,
2013-06-25 13:14:00,89.0,66.8,29.85,SE,135,7.0,-999.0,48,0.00,,,0.00,Wunderground v.1.15,2013-06-25 18:14:00,
2013-06-25 13:19:00,89.9,67.0,29.84,South,180,5.0,-999.0,47,0.00,,,0.00,Wunderground v.1.15,2013-06-25 18:19:00,
2013-06-25 13:24:00,89.9,67.0,29.84,South,180,5.0,-999.0,47,0.00,,,0.00,Wunderground v.1.15,2013-06-25 18:24:00,
2013-06-25 13:29:00,90.7,66.4,29.84,South,180,6.0,-999.0,45,0.00,,,0.00,Wunderground v.1.15,2013-06-25 18:29:00,
2013-06-25 13:34:00,90.7,66.4,29.84,South,180,6.0,-999.0,45,0.00,,,0.00,Wunderground v.1.15,2013-06-25 18:34:00,
2013-06-25 13:39:00,90.5,66.3,29.84,SW,225,7.0,-999.0,45,0.00,,,0.00,Wunderground v.1.15,2013-06-25 18:39:00,
2013-06-25 13:44:00,90.5,66.3,29.84,SW,225,7.0,-999.0,45,0.00,,,0.00,Wunderground v.1.15,2013-06-25 18:44:00,
2013-06-25 13:49:00,91.0,66.1,29.83,SSE,158,7.0,-999.0,44,0.00,,,0.00,Wunderground v.1.15,2013-06-25 18:49:00,
2013-06-25 13:54:00,91.0,66.1,29.83,SSE,158,7.0,-999.0,44,0.00,,,0.00,Wunderground v.1.15,2013-06-25 18:54:00,
2013-06-25 13:59:00,91.4,65.8,29.82,SW,225,8.0,-999.0,43,0.00,,,0.00,Wunderground v.1.15,2013-06-25 18:59:00,
2013-06-25 14:04:00,91.4,65.8,29.82,SW,225,8.0,-999.0,43,0.00,,,0.00,Wunderground v.1.15,2013-06-25 19:04:00,
2013-06-25 14:09:00,91.2,65.6,29.82,SE,135,9.0,-999.0,43,0.00,,,0.00,Wunderground v.1.15,2013-06-25 19:09:00,
2013-06-25 14:14:00,91.2,65.6,29.82,SE,135,9.0,-999.0,43,0.00,,,0.00,Wunderground v.1.15,2013-06-25 19:14:00,
2013-06-25 14:19:00,92.1,66.4,29.82,SW,225,6.0,-999.0,43,0.00,,,0.00,Wunderground v.1.15,2013-06-25 19:19:00,
2013-06-25 14:24:00,92.1,66.4,29.82,SW,225,6.0,-999.0,43,0.00,,,0.00,Wunderground v.1.15,2013-06-25 19:24:00,
2013-06-25 14:29:00,92.1,65.7,29.81,South,180,7.0,-999.0,42,0.00,,,0.00,Wunderground v.1.15,2013-06-25 19:29:00,
2013-06-25 14:34:00,92.1,65.7,29.81,South,180,7.0,-999.0,42,0.00,,,0.00,Wunderground v.1.15,2013-06-25 19:34:00,
2013-06-25 14:39:00,92.5,65.4,29.81,South,180,8.0,-999.0,41,0.00,,,0.00,Wunderground v.1.15,2013-06-25 19:39:00,
2013-06-25 14:44:00,92.5,65.4,29.81,South,180,8.0,-999.0,41,0.00,,,0.00,Wunderground v.1.15,2013-06-25 19:44:00,
2013-06-25 14:49:00,92.5,65.4,29.80,South,180,9.0,-999.0,41,0.00,,,0.00,Wunderground v.1.15,2013-06-25 19:49:00,
2013-06-25 14:54:00,92.5,65.4,29.80,South,180,9.0,-999.0,41,0.00,,,0.00,Wunderground v.1.15,2013-06-25 19:54:00,
2013-06-25 14:59:00,93.6,65.6,29.80,SSW,203,6.0,-999.0,40,0.00,,,0.00,Wunderground v.1.15,2013-06-25 19:59:00,
2013-06-25 15:04:00,93.6,65.6,29.80,SSW,203,6.0,-999.0,40,0.00,,,0.00,Wunderground v.1.15,2013-06-25 20:04:00,
2013-06-25 15:09:00,93.4,64.7,29.80,SSE,158,9.0,-999.0,39,0.00,,,0.00,Wunderground v.1.15,2013-06-25 20:09:00,
2013-06-25 15:14:00,93.4,64.7,29.80,SSE,158,9.0,-999.0,39,0.00,,,0.00,Wunderground v.1.15,2013-06-25 20:14:00,
2013-06-25 15:19:00,93.4,64.0,29.80,South,180,9.0,-999.0,38,0.00,,,0.00,Wunderground v.1.15,2013-06-25 20:19:00,
2013-06-25 15:24:00,93.4,64.0,29.80,South,180,9.0,-999.0,38,0.00,,,0.00,Wunderground v.1.15,2013-06-25 20:24:00,
2013-06-25 15:29:00,92.9,63.6,29.79,South,180,9.0,-999.0,38,0.00,,,0.00,Wunderground v.1.15,2013-06-25 20:29:00,
2013-06-25 15:34:00,92.9,63.6,29.79,South,180,9.0,-999.0,38,0.00,,,0.00,Wunderground v.1.15,2013-06-25 20:34:00,
2013-06-25 15:39:00,93.6,63.4,29.79,SSE,158,9.0,-999.0,37,0.00,,,0.00,Wunderground v.1.15,2013-06-25 20:39:00,
2013-06-25 15:44:00,93.6,63.4,29.79,SSE,158,9.0,-999.0,37,0.00,,,0.00,Wunderground v.1.15,2013-06-25 20:44:00,
2013-06-25 15:49:00,94.5,62.6,29.78,SSW,203,8.0,-999.0,35,0.00,,,0.00,Wunderground v.1.15,2013-06-25 20:49:00,
2013-06-25 15:54:00,94.5,62.6,29.78,SSW,203,8.0,-999.0,35,0.00,,,0.00,Wunderground v.1.15,2013-06-25 20:54:00,
2013-06-25 15:59:00,94.9,63.0,29.78,South,180,8.0,-999.0,35,0.00,,,0.00,Wunderground v.1.15,2013-06-25 20:59:00,
2013-06-25 16:04:00,94.9,63.0,29.78,South,180,8.0,-999.0,35,0.00,,,0.00,Wunderground v.1.15,2013-06-25 21:04:00,
2013-06-25 16:09:00,95.4,62.6,29.78,SSW,203,7.0,-999.0,34,0.00,,,0.00,Wunderground v.1.15,2013-06-25 21:09:00,
2013-06-25 16:14:00,95.4,62.6,29.78,SSW,203,7.0,-999.0,34,0.00,,,0.00,Wunderground v.1.15,2013-06-25 21:14:00,
2013-06-25 16:19:00,95.1,63.1,29.78,SSW,203,8.0,-999.0,35,0.00,,,0.00,Wunderground v.1.15,2013-06-25 21:19:00,
2013-06-25 16:24:00,95.1,63.1,29.78,SSW,203,8.0,-999.0,35,0.00,,,0.00,Wunderground v.1.15,2013-06-25 21:24:00,
2013-06-25 16:29:00,95.1,63.1,29.77,SSW,203,9.0,-999.0,35,0.00,,,0.00,Wunderground v.1.15,2013-06-25 21:29:00,
2013-06-25 16:34:00,95.1,63.1,29.77,SSW,203,9.0,-999.0,35,0.00,,,0.00,Wunderground v.1.15,2013-06-25 21:34:00,
2013-06-25 16:39:00,94.5,63.4,29.77,SSE,158,8.0,-999.0,36,0.00,,,0.00,Wunderground v.1.15,2013-06-25 21:39:00,
2013-06-25 16:44:00,94.5,63.4,29.77,SSE,158,8.0,-999.0,36,0.00,,,0.00,Wunderground v.1.15,2013-06-25 21:44:00,
2013-06-25 16:49:00,94.7,64.4,29.77,SSE,158,7.0,-999.0,37,0.00,,,0.00,Wunderground v.1.15,2013-06-25 21:49:00,
2013-06-25 16:54:00,94.7,64.4,29.77,SSE,158,7.0,-999.0,37,0.00,,,0.00,Wunderground v.1.15,2013-06-25 21:54:00,
2013-06-25 16:59:00,94.7,63.6,29.77,SSE,158,7.0,-999.0,36,0.00,,,0.00,Wunderground v.1.15,2013-06-25 21:59:00,
2013-06-25 17:04:00,94.7,63.6,29.77,SSE,158,7.0,-999.0,36,0.00,,,0.00,Wunderground v.1.15,2013-06-25 22:04:00,
2013-06-25 17:09:00,94.7,63.6,29.77,SSE,158,8.0,-999.0,36,0.00,,,0.00,Wunderground v.1.15,2013-06-25 22:09:00,
2013-06-25 17:14:00,94.7,63.6,29.77,SSE,158,8.0,-999.0,36,0.00,,,0.00,Wunderground v.1.15,2013-06-25 22:14:00,
2013-06-25 17:19:00,95.1,63.1,29.76,SSE,158,5.0,-999.0,35,0.00,,,0.00,Wunderground v.1.15,2013-06-25 22:19:00,
2013-06-25 17:24:00,95.1,63.1,29.76,SSE,158,5.0,-999.0,35,0.00,,,0.00,Wunderground v.1.15,2013-06-25 22:24:00,
2013-06-25 17:29:00,95.1,63.1,29.76,SE,135,6.0,-999.0,35,0.00,,,0.00,Wunderground v.1.15,2013-06-25 22:29:00,
2013-06-25 17:34:00,95.1,63.1,29.76,SE,135,6.0,-999.0,35,0.00,,,0.00,Wunderground v.1.15,2013-06-25 22:34:00,
2013-06-25 17:39:00,95.6,64.4,29.76,SSE,158,6.0,-999.0,36,0.00,,,0.00,Wunderground v.1.15,2013-06-25 22:39:00,
2013-06-25 17:44:00,95.6,64.4,29.76,SSE,158,6.0,-999.0,36,0.00,,,0.00,Wunderground v.1.15,2013-06-25 22:44:00,
2013-06-25 17:49:00,94.7,63.6,29.75,SSE,158,8.0,-999.0,36,0.00,,,0.00,Wunderground v.1.15,2013-06-25 22:49:00,
2013-06-25 17:54:00,94.7,63.6,29.75,SSE,158,8.0,-999.0,36,0.00,,,0.00,Wunderground v.1.15,2013-06-25 22:54:00,
2013-06-25 17:59:00,94.5,63.4,29.74,SE,135,8.0,-999.0,36,0.00,,,0.00,Wunderground v.1.15,2013-06-25 22:59:00,
2013-06-25 18:04:00,94.5,63.4,29.74,SE,135,8.0,-999.0,36,0.00,,,0.00,Wunderground v.1.15,2013-06-25 23:04:00,
2013-06-25 18:09:00,94.7,62.8,29.74,SSE,158,7.0,-999.0,35,0.00,,,0.00,Wunderground v.1.15,2013-06-25 23:09:00,
2013-06-25 18:14:00,94.7,62.8,29.74,SSE,158,7.0,-999.0,35,0.00,,,0.00,Wunderground v.1.15,2013-06-25 23:14:00,
2013-06-25 18:19:00,94.5,65.0,29.74,South,180,7.0,-999.0,38,0.00,,,0.00,Wunderground v.1.15,2013-06-25 23:19:00,
2013-06-25 18:24:00,94.5,65.0,29.74,South,180,7.0,-999.0,38,0.00,,,0.00,Wunderground v.1.15,2013-06-25 23:24:00,
2013-06-25 18:29:00,93.8,65.8,29.74,SE,135,8.0,-999.0,40,0.00,,,0.00,Wunderground v.1.15,2013-06-25 23:29:00,
2013-06-25 18:34:00,93.8,65.8,29.74,SE,135,8.0,-999.0,40,0.00,,,0.00,Wunderground v.1.15,2013-06-25 23:34:00,
2013-06-25 18:39:00,93.2,68.0,29.74,SE,135,8.0,-999.0,44,0.00,,,0.00,Wunderground v.1.15,2013-06-25 23:39:00,
2013-06-25 18:44:00,93.2,68.0,29.74,SE,135,8.0,-999.0,44,0.00,,,0.00,Wunderground v.1.15,2013-06-25 23:44:00,
2013-06-25 18:49:00,92.3,68.5,29.74,SE,135,11.0,-999.0,46,0.00,,,0.00,Wunderground v.1.15,2013-06-25 23:49:00,
2013-06-25 18:54:00,92.3,68.5,29.74,SE,135,11.0,-999.0,46,0.00,,,0.00,Wunderground v.1.15,2013-06-25 23:54:00,
2013-06-25 18:59:00,92.1,68.3,29.74,SE,135,9.0,-999.0,46,0.00,,,0.00,Wunderground v.1.15,2013-06-25 23:59:00,
2013-06-25 19:04:00,92.1,68.3,29.74,SE,135,9.0,-999.0,46,0.00,,,0.00,Wunderground v.1.15,2013-06-26 00:04:00,
2013-06-25 19:09:00,91.6,68.5,29.74,SE,135,10.0,-999.0,47,0.00,,,0.00,Wunderground v.1.15,2013-06-26 00:09:00,
2013-06-25 19:14:00,91.6,68.5,29.74,SE,135,10.0,-999.0,47,0.00,,,0.00,Wunderground v.1.15,2013-06-26 00:14:00,
2013-06-25 19:19:00,91.0,68.6,29.74,SE,135,9.0,-999.0,48,0.00,,,0.00,Wunderground v.1.15,2013-06-26 00:19:00,
2013-06-25 19:24:00,91.0,68.6,29.74,SE,135,9.0,-999.0,48,0.00,,,0.00,Wunderground v.1.15,2013-06-26 00:24:00,
2013-06-25 19:29:00,90.5,68.7,29.74,SE,135,10.0,-999.0,49,0.00,,,0.00,Wunderground v.1.15,2013-06-26 00:29:00,
2013-06-25 19:34:00,90.5,68.7,29.74,SE,135,10.0,-999.0,49,0.00,,,0.00,Wunderground v.1.15,2013-06-26 00:34:00,
2013-06-25 19:39:00,90.1,69.5,29.74,SE,135,7.0,-999.0,51,0.00,,,0.00,Wunderground v.1.15,2013-06-26 00:39:00,
2013-06-25 19:44:00,90.1,69.5,29.74,SE,135,7.0,-999.0,51,0.00,,,0.00,Wunderground v.1.15,2013-06-26 00:44:00,
2013-06-25 19:49:00,89.7,69.7,29.75,SE,135,8.0,-999.0,52,0.00,,,0.00,Wunderground v.1.15,2013-06-26 00:49:00,
2013-06-25 19:54:00,89.7,69.7,29.75,SE,135,8.0,-999.0,52,0.00,,,0.00,Wunderground v.1.15,2013-06-26 00:54:00,
2013-06-25 19:59:00,88.8,70.0,29.76,SSE,158,9.0,-999.0,54,0.00,,,0.00,Wunderground v.1.15,2013-06-26 00:59:00,
2013-06-25 20:04:00,88.8,70.0,29.76,SSE,158,9.0,-999.0,54,0.00,,,0.00,Wunderground v.1.15,2013-06-26 01:04:00,
2013-06-25 20:09:00,88.4,70.2,29.76,SSE,158,7.0,-999.0,55,0.00,,,0.00,Wunderground v.1.15,2013-06-26 01:09:00,
2013-06-25 20:14:00,88.4,70.2,29.76,SSE,158,7.0,-999.0,55,0.00,,,0.00,Wunderground v.1.15,2013-06-26 01:14:00,
2013-06-25 20:19:00,87.8,69.6,29.76,SE,135,9.0,-999.0,55,0.00,,,0.00,Wunderground v.1.15,2013-06-26 01:19:00,
2013-06-25 20:24:00,87.8,69.6,29.76,SE,135,9.0,-999.0,55,0.00,,,0.00,Wunderground v.1.15,2013-06-26 01:24:00,
2013-06-25 20:29:00,87.4,69.8,29.76,SE,135,8.0,-999.0,56,0.00,,,0.00,Wunderground v.1.15,2013-06-26 01:29:00,
2013-06-25 20:34:00,87.4,69.8,29.76,SE,135,8.0,-999.0,56,0.00,,,0.00,Wunderground v.1.15,2013-06-26 01:34:00,
2013-06-25 20:39:00,87.2,69.6,29.76,SSE,158,7.0,-999.0,56,0.00,,,0.00,Wunderground v.1.15,2013-06-26 01:39:00,
2013-06-25 20:44:00,87.2,69.6,29.76,SSE,158,7.0,-999.0,56,0.00,,,0.00,Wunderground v.1.15,2013-06-26 01:44:00,
2013-06-25 20:49:00,86.5,69.5,29.76,SE,135,8.0,-999.0,57,0.00,,,0.00,Wunderground v.1.15,2013-06-26 01:49:00,
2013-06-25 20:54:00,86.5,69.5,29.76,SE,135,8.0,-999.0,57,0.00,,,0.00,Wunderground v.1.15,2013-06-26 01:54:00,
2013-06-25 20:59:00,86.3,69.8,29.77,SSE,158,4.0,-999.0,58,0.00,,,0.00,Wunderground v.1.15,2013-06-26 01:59:00,
2013-06-25 21:04:00,86.3,69.8,29.77,SSE,158,4.0,-999.0,58,0.00,,,0.00,Wunderground v.1.15,2013-06-26 02:04:00,
2013-06-25 21:09:00,85.7,69.2,29.77,SSE,158,4.0,-999.0,58,0.00,,,0.00,Wunderground v.1.15,2013-06-26 02:09:00,
2013-06-25 21:14:00,85.7,69.2,29.77,SSE,158,4.0,-999.0,58,0.00,,,0.00,Wunderground v.1.15,2013-06-26 02:14:00,
2013-06-25 21:19:00,85.3,68.8,29.77,SE,135,7.0,-999.0,58,0.00,,,0.00,Wunderground v.1.15,2013-06-26 02:19:00,
2013-06-25 21:24:00,85.3,68.8,29.77,SE,135,7.0,-999.0,58,0.00,,,0.00,Wunderground v.1.15,2013-06-26 02:24:00,
2013-06-25 21:29:00,85.1,69.2,29.78,SE,135,6.0,-999.0,59,0.00,,,0.00,Wunderground v.1.15,2013-06-26 02:29:00,
2013-06-25 21:34:00,85.1,69.2,29.78,SE,135,6.0,-999.0,59,0.00,,,0.00,Wunderground v.1.15,2013-06-26 02:34:00,
2013-06-25 21:39:00,84.7,69.3,29.78,SE,135,7.0,-999.0,60,0.00,,,0.00,Wunderground v.1.15,2013-06-26 02:39:00,
2013-06-25 21:44:00,84.7,69.3,29.78,SE,135,7.0,-999.0,60,0.00,,,0.00,Wunderground v.1.15,2013-06-26 02:44:00,
2013-06-25 21:49:00,84.1,69.2,29.78,SSE,158,7.0,-999.0,61,0.00,,,0.00,Wunderground v.1.15,2013-06-26 02:49:00,
2013-06-25 21:54:00,84.1,69.2,29.78,SSE,158,7.0,-999.0,61,0.00,,,0.00,Wunderground v.1.15,2013-06-26 02:54:00,
2013-06-25 21:59:00,83.8,69.9,29.79,SE,135,6.0,-999.0,63,0.00,,,0.00,Wunderground v.1.15,2013-06-26 02:59:00,
2013-06-25 22:04:00,83.8,69.9,29.79,SE,135,6.0,-999.0,63,0.00,,,0.00,Wunderground v.1.15,2013-06-26 03:04:00,
2013-06-25 22:09:00,83.0,70.5,29.79,SE,135,8.0,-999.0,66,0.00,,,0.00,Wunderground v.1.15,2013-06-26 03:09:00,
2013-06-25 22:14:00,83.0,70.5,29.79,SE,135,8.0,-999.0,66,0.00,,,0.00,Wunderground v.1.15,2013-06-26 03:14:00,
2013-06-25 22:19:00,82.4,70.3,29.79,SE,135,7.0,-999.0,67,0.00,,,0.00,Wunderground v.1.15,2013-06-26 03:19:00,
2013-06-25 22:24:00,82.4,70.3,29.79,SE,135,7.0,-999.0,67,0.00,,,0.00,Wunderground v.1.15,2013-06-26 03:24:00,
2013-06-25 22:29:00,82.0,70.4,29.79,SE,135,8.0,-999.0,68,0.00,,,0.00,Wunderground v.1.15,2013-06-26 03:29:00,
2013-06-25 22:34:00,82.0,70.4,29.79,SE,135,8.0,-999.0,68,0.00,,,0.00,Wunderground v.1.15,2013-06-26 03:34:00,
2013-06-25 22:39:00,81.6,70.0,29.79,SE,135,7.0,-999.0,68,0.00,,,0.00,Wunderground v.1.15,2013-06-26 03:39:00,
2013-06-25 22:44:00,81.6,70.0,29.79,SE,135,7.0,-999.0,68,0.00,,,0.00,Wunderground v.1.15,2013-06-26 03:44:00,
2013-06-25 22:49:00,81.2,70.1,29.80,SE,135,6.0,-999.0,69,0.00,,,0.00,Wunderground v.1.15,2013-06-26 03:49:00,
2013-06-25 22:54:00,81.2,70.1,29.80,SE,135,6.0,-999.0,69,0.00,,,0.00,Wunderground v.1.15,2013-06-26 03:54:00,
2013-06-25 22:59:00,80.9,69.8,29.81,SE,135,6.0,-999.0,69,0.00,,,0.00,Wunderground v.1.15,2013-06-26 03:59:00,
2013-06-25 23:04:00,80.9,69.8,29.81,SE,135,6.0,-999.0,69,0.00,,,0.00,Wunderground v.1.15,2013-06-26 04:04:00,
2013-06-25 23:09:00,80.3,69.6,29.81,SE,135,7.0,-999.0,70,0.00,,,0.00,Wunderground v.1.15,2013-06-26 04:09:00,
2013-06-25 23:14:00,80.3,69.6,29.81,SE,135,7.0,-999.0,70,0.00,,,0.00,Wunderground v.1.15,2013-06-26 04:14:00,
2013-06-25 23:19:00,80.1,69.8,29.82,SE,135,6.0,-999.0,71,0.00,,,0.00,Wunderground v.1.15,2013-06-26 04:19:00,
2013-06-25 23:24:00,80.1,69.8,29.82,SE,135,6.0,-999.0,71,0.00,,,0.00,Wunderground v.1.15,2013-06-26 04:24:00,
2013-06-25 23:29:00,79.8,69.1,29.82,SE,135,5.0,-999.0,70,0.00,,,0.00,Wunderground v.1.15,2013-06-26 04:29:00,
2013-06-25 23:34:00,79.8,69.1,29.82,SE,135,5.0,-999.0,70,0.00,,,0.00,Wunderground v.1.15,2013-06-26 04:34:00,
2013-06-25 23:39:00,79.4,69.6,29.82,SE,135,5.0,-999.0,72,0.00,,,0.00,Wunderground v.1.15,2013-06-26 04:39:00,
2013-06-25 23:44:00,79.4,69.6,29.82,SE,135,5.0,-999.0,72,0.00,,,0.00,Wunderground v.1.15,2013-06-26 04:44:00,
2013-06-25 23:49:00,79.0,70.0,29.83,SE,135,6.0,-999.0,74,0.00,,,0.00,Wunderground v.1.15,2013-06-26 04:49:00,
2013-06-25 23:54:00,79.0,70.0,29.83,SE,135,6.0,-999.0,74,0.00,,,0.00,Wunderground v.1.15,2013-06-26 04:54:00,
2013-06-25 23:59:00,78.6,69.6,29.83,SE,135,5.0,-999.0,74,0.00,,,0.00,Wunderground v.1.15,2013-06-26 04:59:00,